| time (UTC) | temp C | wind direction | speed KPH | gust KPH | rain 1hr cm | rain 24hr cm | rain mn cm | humidity % | barometer mb |
| 20260503233209 | 11 | 54 | 0.0 | 0.0 | 0.00 | 0.00 | 0.00 | 74 | 1013.8 |
| 20260503230209 | 11 | 54 | 0.0 | 0.0 | 0.00 | 0.00 | 0.00 | 73 | 1014.1 |
| 20260503223210 | 12 | 54 | 0.0 | 0.0 | 0.00 | 0.00 | 0.00 | 71 | 1014.1 |
| 20260503220212 | 12 | 54 | 0.0 | 0.0 | 0.00 | 0.00 | 0.00 | 65 | 1013.9 |
| 20260503213210 | 14 | 54 | 0.0 | 0.0 | 0.00 | 0.00 | 0.00 | 60 | 1013.6 |
| 20260503210211 | 16 | 32 | 3.2 | 0.0 | 0.00 | 0.00 | 0.00 | 51 | 1013.4 |
| 20260503203209 | 16 | 281 | 0.0 | 0.0 | 0.00 | 0.00 | 0.00 | 49 | 1012.9 |
| 20260503200211 | 17 | 261 | 8.0 | 0.0 | 0.00 | 0.00 | 0.00 | 48 | 1012.6 |
| 20260503193210 | 18 | 276 | 4.8 | 0.0 | 0.00 | 0.00 | 0.00 | 51 | 1012.2 |
| 20260503190210 | 19 | 252 | 6.4 | 0.0 | 0.00 | 0.00 | 0.00 | 53 | 1011.7 |
| 20260503183209 | 20 | 273 | 4.8 | 0.0 | 0.00 | 0.00 | 0.00 | 48 | 1011.3 |
| 20260503180210 | 21 | 31 | 3.2 | 0.0 | 0.00 | 0.00 | 0.00 | 45 | 1011.2 |
| 20260503173209 | 22 | 142 | 4.8 | 0.0 | 0.00 | 0.00 | 0.00 | 44 | 1011.0 |
| 20260503170211 | 22 | 240 | 4.8 | 0.0 | 0.00 | 0.00 | 0.00 | 40 | 1011.1 |
| 20260503160211 | 25 | 138 | 16.1 | 0.0 | 0.00 | 0.00 | 0.00 | 35 | 1010.6 |
| 20260503150209 | 25 | 253 | 14.5 | 0.0 | 0.00 | 0.00 | 0.00 | 31 | 1010.8 |
| 20260503140210 | 25 | 188 | 6.4 | 0.0 | 0.00 | 0.00 | 0.00 | 31 | 1011.3 |
| 20260503130210 | 23 | 218 | 8.0 | 0.0 | 0.00 | 0.00 | 0.00 | 35 | 1012.1 |
| 20260503120210 | 24 | 182 | 14.5 | 0.0 | 0.00 | 0.00 | 0.00 | 35 | 1012.6 |
| 20260503110210 | 23 | 55 | 17.7 | 0.0 | 0.00 | 0.00 | 0.00 | 31 | 1013.0 |
| 20260503100212 | 23 | 75 | 24.1 | 0.0 | 0.00 | 0.00 | 0.00 | 33 | 1013.8 |
| 20260503090210 | 21 | 194 | 6.4 | 0.0 | 0.00 | 0.00 | 0.00 | 42 | 1014.3 |
| 20260503080212 | 17 | 251 | 8.0 | 0.0 | 0.00 | 0.00 | 0.00 | 58 | 1014.6 |
| 20260503070211 | 13 | 224 | 4.8 | 0.0 | 0.00 | 0.00 | 0.00 | 70 | 1014.7 |
| 20260503060211 | 9 | 49 | 1.6 | 0.0 | 0.00 | 0.00 | 0.00 | 86 | 1014.8 |
| 20260503053211 | 6 | 49 | 0.0 | 0.0 | 0.00 | 0.00 | 0.00 | 90 | 1014.9 |
| 20260503050212 | 5 | 53 | 0.0 | 0.0 | 0.00 | 0.00 | 0.00 | 88 | 1014.9 |
| 20260503043211 | 5 | 53 | 1.6 | 0.0 | 0.00 | 0.00 | 0.00 | 86 | 1015.1 |
| 20260503040210 | 5 | 46 | 0.0 | 0.0 | 0.00 | 0.00 | 0.00 | 85 | 1014.8 |
| 20260503033211 | 5 | 46 | 0.0 | 0.0 | 0.00 | 0.00 | 0.00 | 84 | 1014.7 |
| 20260503030211 | 6 | 46 | 0.0 | 0.0 | 0.00 | 0.00 | 0.00 | 83 | 1014.8 |
| 20260503023211 | 6 | 46 | 0.0 | 0.0 | 0.00 | 0.00 | 0.00 | 82 | 1014.9 |
| 20260503020211 | 7 | 46 | 0.0 | 0.0 | 0.00 | 0.00 | 0.00 | 81 | 1015.1 |
| 20260503013211 | 7 | 46 | 0.0 | 0.0 | 0.00 | 0.00 | 0.00 | 80 | 1015.2 |
| 20260503010211 | 7 | 46 | 0.0 | 0.0 | 0.00 | 0.00 | 0.00 | 80 | 1015.3 |
| 20260503003209 | 7 | 46 | 0.0 | 0.0 | 0.00 | 0.00 | 0.00 | 81 | 1015.6 |
| 20260503000211 | 7 | 46 | 0.0 | 0.0 | 0.00 | 0.00 | 0.00 | 80 | 1015.7 |